FW4043 Weather Reports


time (UTC)temp
F
wind
direction
speed
knots
gust
knots
rain 1hr
in
rain 24hr
in
rain mn
in
humidity
%
barometer
mb
20260504081511 58 108 5.2 7.0 0.00 0.00 0.00 81 1018.1
20260504044504 60 118 5.2 7.0 0.00 0.00 0.00 77 1020.3
20260504043008 61 125 6.1 10.4 0.00 0.00 0.00 76 1020.4
20260504041512 61 121 5.2 7.0 0.00 0.00 0.00 75 1020.3
20260504040024 62 128 4.3 6.1 0.00 0.00 0.00 74 1020.3
20260504034533 62 119 4.3 7.0 0.00 0.00 0.00 73 1020.2
20260504033049 62 121 4.3 6.1 0.00 0.00 0.00 72 1020.4
20260504031602 63 120 4.3 6.1 0.00 0.00 0.00 72 1020.1
20260504030058 63 121 5.2 7.0 0.00 0.00 0.00 71 1020.2
20260504024513 64 123 5.2 6.1 0.00 0.00 0.00 70 1020.1
20260504023010 64 126 5.2 6.1 0.00 0.00 0.00 69 1020.0
20260504021516 65 125 4.3 7.0 0.00 0.00 0.00 68 1020.0
20260504020019 66 149 5.2 7.8 0.00 0.00 0.00 67 1019.9
20260504014530 67 140 4.3 6.1 0.00 0.00 0.00 65 1019.9
20260504013046 68 156 5.2 7.8 0.00 0.00 0.00 64 1019.9
20260504011543 69 134 4.3 7.0 0.00 0.00 0.00 61 1019.8
20260504010047 70 122 5.2 8.7 0.00 0.00 0.00 61 1019.8
20260504004616 71 138 4.3 7.0 0.00 0.00 0.00 60 1019.7
20260504003004 72 140 5.2 8.7 0.00 0.00 0.00 58 1019.8
20260504001514 73 150 5.2 7.8 0.00 0.00 0.00 57 1019.8
20260504000019 73 135 5.2 9.6 0.00 0.00 0.00 55 1019.7
20260503234523 74 170 5.2 9.6 0.00 0.00 0.00 54 1019.9
20260503233031 75 171 6.1 11.3 0.00 0.00 0.00 52 1019.8
20260503231531 75 168 7.0 12.2 0.00 0.00 0.00 52 1020.2
20260503230044 76 137 7.8 11.3 0.00 0.00 0.00 53 1020.1
20260503224547 76 163 7.0 11.3 0.00 0.00 0.00 52 1020.3
20260503223058 76 151 7.0 11.3 0.00 0.00 0.00 53 1020.4
20260503221556 76 107 5.2 9.6 0.00 0.00 0.00 52 1020.7
20260503221503 76 119 5.2 9.6 0.00 0.00 0.00 52 1020.8
20260503220043 77 215 7.8 12.2 0.00 0.00 0.00 51 1020.7
20260503214557 76 132 4.3 9.6 0.00 0.00 0.00 51 1020.7
20260503213056 77 133 3.5 10.4 0.00 0.00 0.00 49 1021.0
20260503211504 77 165 6.1 10.4 0.00 0.00 0.00 49 1021.1
20260503210010 77 147 6.1 10.4 0.00 0.00 0.00 50 1021.5
20260503204511 77 131 5.2 8.7 0.00 0.00 0.00 48 1021.5
20260503203023 78 105 6.1 8.7 0.00 0.00 0.00 47 1021.6
20260503201505 77 86 5.2 11.3 0.00 0.00 0.00 48 1021.9
20260503200009 77 138 7.8 13.0 0.00 0.00 0.00 45 1022.2
20260503194509 77 146 6.1 10.4 0.00 0.00 0.00 48 1022.4
20260503193030 77 128 9.6 13.9 0.00 0.00 0.00 47 1022.6
20260503191515 77 109 1.7 9.6 0.00 0.00 0.00 51 1022.8
20260503190022 76 46 6.1 12.2 0.00 0.00 0.00 50 1023.0
20260503184605 76 119 4.3 11.3 0.00 0.00 0.00 50 1023.3
20260503183102 76 88 3.5 8.7 0.00 0.00 0.00 53 1023.5
20260503183001 76 55 1.7 8.7 0.00 0.00 0.00 53 1023.5
20260503181509 76 147 5.2 10.4 0.00 0.00 0.00 52 1023.8
20260503180009 76 79 2.6 9.6 0.00 0.00 0.00 54 1024.0
20260503174513 75 105 6.1 11.3 0.00 0.00 0.00 52 1024.3
20260503173021 75 126 5.2 8.7 0.00 0.00 0.00 54 1024.5
20260503171526 75 97 5.2 9.6 0.00 0.00 0.00 57 1024.8